This is the latest recevied weather packets stored in our database for station/object LY3FF-10. If no packets are shown the sender has not sent any weather packets the latest 10 day(s).
| Time | Temp. | Humidity | Pressure | Rain* | Wind** | Luminosity | Snow |
|---|---|---|---|---|---|---|---|
| 1787999014 | 23.33° C | 52% | 994 hPa | - | - | - | - |
| 1787998210 | 30° C | 53% | 994 hPa | - | - | - | - |
| 1787997455 | 29.44° C | 54% | 994.2 hPa | - | - | - | - |
| 1787996680 | 22.78° C | 55% | 994.2 hPa | - | - | - | - |
| 1787995924 | 22.78° C | 55% | 994.4 hPa | - | - | - | - |
| 1787995154 | 24.44° C | 55% | 994.7 hPa | - | - | - | - |
| 1787994404 | 22.22° C | 54% | 994.9 hPa | - | - | - | - |
| 1787993560 | 23.33° C | 56% | 995.1 hPa | - | - | - | - |
| 1787992695 | 22.78° C | 57% | 995.1 hPa | - | - | - | - |
| 1787991872 | 21.11° C | 57% | 995.2 hPa | - | - | - | - |
| 1787991053 | 20.56° C | 58% | 995.4 hPa | - | - | - | - |
| 1787990220 | 21.11° C | 58% | 995.3 hPa | - | - | - | - |
| 1787989345 | 20.56° C | 59% | 995.5 hPa | - | - | - | - |
| 1787988494 | 20.56° C | 60% | 995.5 hPa | - | - | - | - |
| 1787987594 | 18.89° C | 60% | 995.6 hPa | - | - | - | - |
| 1787986853 | 18.33° C | 61% | 995.7 hPa | - | - | - | - |
| 1787986070 | 18.33° C | 62% | 996 hPa | - | - | - | - |
| 1787985220 | 17.78° C | 62% | 996.2 hPa | - | - | - | - |
| 1787984324 | 17.22° C | 62% | 996.4 hPa | - | - | - | - |
| 1787983575 | 17.22° C | 63% | 996.5 hPa | - | - | - | - |
| 1787982730 | 16.67° C | 63% | 996.5 hPa | - | - | - | - |
| 1787981880 | 16.11° C | 64% | 996.7 hPa | - | - | - | - |
| 1787981037 | 15.56° C | 65% | 997 hPa | - | - | - | - |
| 1787980240 | 15.56° C | 66% | 997.2 hPa | - | - | - | - |
| 1787979408 | 15° C | 66% | 997.1 hPa | - | - | - | - |
* Rain since midnight (hover to see other rain measurements)
** Current wind speed in m/s (hover to see current wind gust speed)